Precipitable_Water
1.57 1.60 1.60 1.56 1.53 1.53 1.49 1.40 1.35 1.30 1.30 1.33 1.28 1.26 1.28 1.33 1.39 1.39 1.44 1.53 1.57 1.60 1.63 1.62 1.63 1.64 1.68 1.71 1.71 1.69 1.67 1.62 1.58 1.59 1.58 1.56 1.52 1.50 1.45 1.45 1.48 1.47
1.50 1.58 1.63 1.64 1.61 1.62 1.61 1.56 1.49 1.43 1.37 1.35 1.34 1.32 1.36 1.38 1.37 1.40 1.44 1.49 1.54 1.55 1.60 1.61 1.62 1.62 1.64 1.68 1.70 1.66 1.64 1.64 1.57 1.63 1.58 1.56 1.55 1.53 1.47 1.45 1.44 1.47
1.42 1.49 1.57 1.59 1.59 1.60 1.61 1.63 1.59 1.56 1.51 1.46 1.43 1.40 1.39 1.42 1.40 1.44 1.51 1.52 1.52 1.53 1.56 1.59 1.61 1.64 1.65 1.67 1.69 1.67 1.64 1.63 1.60 1.66 1.67 1.62 1.59 1.51 1.49 1.48 1.44 1.41
1.36 1.41 1.47 1.56 1.61 1.61 1.64 1.63 1.62 1.61 1.61 1.56 1.49 1.49 1.47 1.46 1.44 1.46 1.52 1.56 1.53 1.53 1.57 1.58 1.58 1.63 1.66 1.67 1.67 1.65 1.64 1.64 1.67 1.70 1.68 1.70 1.65 1.58 1.51 1.49 1.47 1.43
1.34 1.36 1.41 1.48 1.56 1.63 1.65 1.61 1.59 1.62 1.61 1.60 1.60 1.57 1.54 1.53 1.50 1.51 1.55 1.57 1.57 1.55 1.58 1.58 1.60 1.62 1.66 1.65 1.63 1.57 1.57 1.54 1.57 1.58 1.56 1.55 1.58 1.55 1.53 1.51 1.47 1.44
1.41 1.39 1.40 1.41 1.46 1.53 1.59 1.60 1.61 1.62 1.62 1.61 1.61 1.63 1.61 1.60 1.56 1.56 1.59 1.60 1.64 1.65 1.64 1.63 1.63 1.66 1.68 1.67 1.64 1.58 1.54 1.50 1.51 1.51 1.46 1.43 1.44 1.49 1.50 1.50 1.47 1.42
1.40 1.39 1.36 1.38 1.40 1.46 1.52 1.59 1.63 1.64 1.64 1.65 1.68 1.64 1.64 1.61 1.59 1.59 1.61 1.63 1.67 1.70 1.69 1.69 1.70 1.71 1.74 1.72 1.68 1.62 1.60 1.56 1.55 1.53 1.48 1.49 1.49 1.45 1.47 1.46 1.44 1.43
1.42 1.44 1.42 1.39 1.35 1.38 1.43 1.52 1.59 1.62 1.65 1.66 1.62 1.66 1.67 1.64 1.64 1.65 1.66 1.66 1.67 1.69 1.71 1.71 1.72 1.72 1.75 1.75 1.70 1.66 1.62 1.63 1.59 1.54 1.49 1.48 1.51 1.47 1.49 1.51 1.52 1.47
1.47 1.45 1.45 1.40 1.33 1.32 1.35 1.44 1.53 1.60 1.64 1.61 1.61 1.63 1.67 1.68 1.70 1.72 1.73 1.74 1.71 1.70 1.70 1.69 1.69 1.69 1.72 1.71 1.69 1.68 1.65 1.64 1.64 1.61 1.56 1.50 1.48 1.48 1.51 1.57 1.56 1.53
1.48 1.48 1.45 1.42 1.35 1.30 1.30 1.38 1.48 1.53 1.59 1.59 1.60 1.62 1.60 1.67 1.73 1.77 1.79 1.78 1.74 1.73 1.72 1.72 1.72 1.72 1.71 1.71 1.68 1.68 1.66 1.65 1.67 1.66 1.64 1.59 1.55 1.53 1.54 1.57 1.56 1.54
1.52 1.50 1.47 1.43 1.38 1.33 1.28 1.35 1.42 1.47 1.52 1.54 1.59 1.60 1.63 1.65 1.70 1.76 1.77 1.77 1.74 1.75 1.76 1.77 1.77 1.78 1.75 1.72 1.71 1.71 1.70 1.71 1.72 1.72 1.70 1.68 1.65 1.63 1.62 1.62 1.61 1.59
1.61 1.52 1.48 1.47 1.43 1.38 1.32 1.32 1.38 1.43 1.46 1.51 1.56 1.58 1.63 1.67 1.69 1.73 1.75 1.74 1.76 1.77 1.77 1.78 1.79 1.79 1.77 1.75 1.74 1.74 1.74 1.76 1.78 1.78 1.75 1.74 1.74 1.72 1.69 1.68 1.66 1.65
1.69 1.58 1.51 1.50 1.50 1.45 1.40 1.34 1.34 1.39 1.44 1.47 1.54 1.55 1.58 1.64 1.70 1.73 1.79 1.79 1.79 1.79 1.76 1.75 1.77 1.79 1.78 1.77 1.77 1.78 1.77 1.76 1.77 1.77 1.75 1.74 1.74 1.74 1.74 1.74 1.73 1.71
1.73 1.68 1.58 1.53 1.53 1.53 1.48 1.41 1.37 1.37 1.41 1.48 1.54 1.53 1.56 1.61 1.65 1.70 1.78 1.83 1.84 1.82 1.81 1.80 1.79 1.79 1.80 1.80 1.79 1.78 1.78 1.76 1.76 1.75 1.74 1.72 1.72 1.72 1.72 1.72 1.73 1.74
1.79 1.74 1.66 1.57 1.54 1.53 1.51 1.48 1.43 1.40 1.41 1.46 1.50 1.53 1.58 1.64 1.70 1.74 1.78 1.82 1.85 1.85 1.84 1.86 1.83 1.82 1.83 1.81 1.78 1.77 1.79 1.78 1.78 1.76 1.73 1.69 1.68 1.68 1.69 1.70 1.70 1.71
1.94 1.84 1.72 1.61 1.54 1.50 1.51 1.53 1.52 1.49 1.46 1.44 1.45 1.49 1.54 1.61 1.67 1.72 1.76 1.80 1.81 1.82 1.84 1.84 1.83 1.84 1.84 1.84 1.83 1.80 1.79 1.79 1.79 1.78 1.76 1.73 1.70 1.66 1.66 1.67 1.68 1.69
2.07 1.97 1.84 1.65 1.57 1.54 1.54 1.54 1.55 1.56 1.52 1.48 1.45 1.45 1.47 1.52 1.60 1.62 1.64 1.67 1.70 1.73 1.76 1.78 1.79 1.81 1.82 1.83 1.84 1.86 1.87 1.84 1.80 1.77 1.78 1.77 1.75 1.71 1.66 1.66 1.69 1.71
2.08 2.06 1.98 1.81 1.68 1.59 1.57 1.59 1.58 1.56 1.53 1.52 1.51 1.48 1.46 1.47 1.50 1.55 1.58 1.60 1.61 1.64 1.65 1.69 1.74 1.79 1.80 1.81 1.82 1.85 1.89 1.90 1.91 1.88 1.86 1.83 1.81 1.77 1.74 1.72 1.71 1.73
2.05 2.14 2.05 1.95 1.82 1.72 1.69 1.66 1.60 1.59 1.58 1.54 1.49 1.52 1.56 1.53 1.51 1.53 1.54 1.59 1.61 1.60 1.59 1.64 1.69 1.76 1.78 1.80 1.82 1.83 1.84 1.88 1.89 1.90 1.89 1.89 1.90 1.87 1.83 1.81 1.81 1.80
2.01 2.02 2.03 2.01 1.95 1.84 1.77 1.71 1.65 1.62 1.66 1.72 1.69 1.62 1.54 1.54 1.60 1.59 1.59 1.60 1.61 1.61 1.61 1.65 1.68 1.73 1.77 1.80 1.82 1.84 1.85 1.86 1.84 1.83 1.85 1.88 1.92 1.94 1.92 1.90 1.89 1.87
2.00 1.96 1.93 1.98 1.97 1.95 1.90 1.82 1.76 1.71 1.72 1.76 1.74 1.68 1.63 1.65 1.68 1.67 1.65 1.66 1.67 1.68 1.68 1.68 1.72 1.77 1.80 1.83 1.87 1.88 1.89 1.89 1.86 1.84 1.82 1.83 1.89 1.94 1.95 1.94 1.94 1.94
2.08 2.04 2.03 1.96 1.95 1.96 1.97 1.89 1.87 1.80 1.76 1.78 1.79 1.81 1.84 1.85 1.79 1.78 1.80 1.78 1.74 1.73 1.72 1.71 1.78 1.83 1.84 1.86 1.89 1.91 1.91 1.89 1.87 1.84 1.82 1.81 1.83 1.87 1.91 1.95 1.98 1.99
2.14 2.08 2.10 2.06 2.00 1.98 1.96 2.01 1.97 1.91 1.89 1.90 1.84 1.87 1.86 1.86 1.84 1.94 2.03 1.96 1.87 1.85 1.77 1.76 1.81 1.83 1.82 1.82 1.82 1.83 1.83 1.82 1.82 1.81 1.80 1.79 1.81 1.86 1.90 1.93 1.96 1.98
2.11 2.08 2.09 2.08 2.02 1.99 2.02 2.05 2.03 2.02 2.01 2.02 1.92 1.88 1.87 1.91 1.97 2.02 2.05 2.02 1.93 1.90 1.87 1.78 1.76 1.79 1.81 1.82 1.82 1.81 1.80 1.78 1.79 1.76 1.73 1.72 1.74 1.83 1.90 1.94 1.97 2.00
2.07 2.03 2.04 2.05 2.02 2.00 2.03 2.02 2.01 2.03 2.06 2.08 2.04 2.00 1.97 1.99 1.98 1.95 1.95 2.03 2.02 1.99 2.01 1.94 1.87 1.86 1.86 1.83 1.82 1.83 1.84 1.84 1.82 1.79 1.74 1.73 1.72 1.70 1.77 1.82 1.88 1.97
2.05 1.98 1.96 1.98 1.98 2.01 2.03 2.04 2.06 2.04 2.05 2.07 2.05 2.06 2.01 1.98 1.97 1.95 1.89 1.87 1.88 1.90 1.95 1.99 1.99 2.01 2.01 1.99 1.97 1.94 1.94 1.93 1.95 1.91 1.87 1.86 1.87 1.83 1.79 1.81 1.84 1.86
Wind_Speed
15 14 14 13 13 12 12 12 12 11 11 10 10 10 10 10 9 9 9 9 9 9 8 8 8 8 7 7 7 6 6 6 6 6 6 6 6 6 6 6 6 6
16 15 15 14 14 13 13 13 12 12 11 11 11 10 10 10 10 10 10 10 10 9 9 9 8 8 8 7 7 6 6 6 6 6 6 6 6 6 6 6 6 6
16 16 16 15 15 14 14 13 13 13 12 12 12 11 11 10 10 10 10 10 10 9 9 9 9 9 8 8 8 7 7 7 7 6 6 6 6 6 6 6 6 6
17 17 17 16 16 15 15 14 14 13 13 13 12 12 11 11 11 11 11 10 10 10 10 9 9 9 9 8 8 8 8 8 7 7 7 7 7 7 6 6 7 7
18 18 17 17 16 16 15 15 15 14 14 13 13 12 12 11 11 11 11 11 10 10 10 10 10 10 9 9 9 9 9 9 8 8 8 8 8 7 7 7 7 7
18 18 18 18 17 17 16 16 16 15 14 14 14 13 13 12 12 12 12 12 11 11 11 10 10 10 10 10 10 10 9 9 9 9 9 9 8 8 8 8 8 7
19 19 19 18 18 17 17 17 16 16 15 15 15 14 14 14 13 13 13 12 12 12 11 11 11 11 11 10 10 10 10 10 9 9 9 9 9 9 9 8 8 8
20 19 19 19 19 18 18 18 17 17 16 16 16 15 15 15 14 14 14 13 13 13 12 12 12 11 11 11 11 11 11 10 10 10 10 10 9 9 9 9 9 9
20 20 20 20 19 19 19 18 18 18 17 17 16 16 16 15 15 15 14 14 14 13 13 13 12 12 12 12 12 11 11 11 11 11 11 10 10 10 10 9 9 9
21 21 21 21 20 20 20 19 18 18 17 17 17 17 16 16 16 15 15 15 14 14 13 13 13 13 12 12 12 12 12 12 11 11 11 11 11 10 10 10 10 10
22 22 22 22 21 21 21 20 19 19 18 18 17 17 17 16 16 16 16 15 15 15 14 14 14 14 13 13 13 13 13 12 12 12 11 11 11 11 11 10 10 10
23 23 23 23 23 22 22 21 21 20 19 19 18 18 18 17 17 17 16 16 16 16 15 15 15 15 14 14 14 14 13 13 13 13 12 12 12 12 11 11 11 11
25 25 24 24 24 23 23 23 22 22 21 20 20 19 19 18 18 18 17 17 16 16 16 16 16 16 16 15 15 15 14 14 14 14 13 13 13 13 13 12 12 12
26 26 26 25 25 25 24 24 24 23 23 22 22 21 20 20 20 19 18 18 17 17 17 17 17 17 17 16 16 16 16 15 15 15 15 14 14 14 14 14 13 13
27 27 27 27 26 26 25 25 25 24 24 24 23 23 22 22 21 20 20 19 19 19 18 18 18 18 18 18 17 17 17 17 16 16 16 16 16 15 15 15 15 15
29 28 28 28 27 27 26 26 26 25 25 25 25 24 24 23 22 21 21 21 20 20 20 19 19 19 19 19 19 18 18 18 18 18 17 17 17 17 17 17 16 16
30 29 29 28 28 28 27 26 26 26 26 26 26 26 25 25 24 23 23 22 22 22 21 21 20 20 20 20 20 20 19 19 19 19 19 19 19 18 18 18 18 17
31 30 30 29 29 28 28 27 27 26 26 26 26 26 26 26 25 25 24 24 24 23 23 22 22 22 21 21 21 21 21 20 20 20 20 20 20 20 20 19 19 19
32 30 29 29 29 28 28 28 28 27 27 26 26 26 26 26 26 26 26 25 25 25 25 24 23 23 23 22 22 22 22 21 21 21 21 21 21 21 21 20 20 20
32 31 29 28 28 28 28 28 28 28 27 27 27 27 27 27 27 27 27 27 26 26 26 25 24 24 24 24 23 23 23 23 22 22 22 21 21 21 21 21 21 21
31 31 30 29 27 27 27 27 27 27 28 28 27 27 27 27 27 27 27 27 27 26 26 25 25 25 25 25 24 24 24 24 23 23 23 23 23 22 22 22 22 22
30 29 29 29 28 27 26 26 26 27 27 28 27 27 26 26 26 27 27 27 26 26 26 26 25 25 25 25 25 25 25 25 24 24 24 24 24 24 24 23 23 23
27 27 26 27 28 27 26 26 26 26 26 27 27 27 26 25 26 26 25 25 26 26 26 25 25 25 25 25 26 26 26 26 26 26 26 25 25 25 25 25 25 25
24 24 25 25 25 26 26 25 25 25 26 26 27 27 26 26 26 26 26 26 26 26 26 26 25 25 26 26 26 26 27 27 27 27 27 27 27 27 27 26 27 27
20 22 23 24 24 25 24 24 24 25 25 25 26 26 27 27 27 28 27 27 27 27 27 27 27 27 27 27 27 27 28 28 28 28 29 29 29 29 28 28 28 28
16 17 19 21 22 23 23 23 24 24 25 25 26 27 27 28 29 29 29 28 28 28 28 27 28 28 28 28 29 29 29 30 30 30 30 30 30 30 30 30 30 29
Wind_Direction
210 210 210 210 210 210 209 208 208 208 208 208 209 210 210 210 209 208 208 208 208 209 210 211 213 214 216 217 218 220 222 225 226 226 227 229 231 233 236 238 239 243
212 212 212 213 213 213 213 212 212 212 212 212 212 212 213 213 211 210 211 212 212 213 213 214 215 216 217 218 220 223 225 227 228 228 228 230 232 234 237 242 244 247
215 215 214 215 216 216 215 215 215 215 215 215 215 216 216 215 213 212 213 215 216 217 217 218 218 218 219 219 221 224 227 228 229 230 231 233 235 236 240 244 248 250
218 218 217 217 218 219 218 218 218 218 217 217 217 217 217 216 215 214 216 217 219 221 222 222 222 222 222 223 226 229 230 231 232 233 235 238 240 242 244 247 250 253
220 220 220 219 220 220 221 221 220 220 219 218 218 218 218 218 218 218 219 221 222 224 225 225 226 226 227 228 230 233 234 236 236 237 238 241 243 245 247 249 251 254
222 222 222 222 222 222 222 222 222 222 223 222 221 220 220 220 221 222 223 224 225 226 226 227 228 230 232 233 234 235 236 238 239 240 241 243 245 247 248 250 251 254
223 223 223 224 223 223 223 224 224 224 226 226 225 223 223 222 223 225 227 227 228 228 228 229 230 232 234 235 236 237 237 238 240 241 242 244 247 249 250 251 253 256
223 224 224 225 225 224 224 225 225 226 228 228 227 226 225 225 225 226 228 230 230 230 231 232 233 234 235 236 238 239 240 240 241 241 242 244 247 249 251 252 255 258
224 225 225 225 226 226 226 226 226 228 229 229 229 228 227 227 228 228 230 231 232 233 234 234 235 236 237 237 239 240 241 242 242 243 244 245 246 247 249 251 254 257
226 226 226 226 226 227 226 226 227 228 229 230 229 230 230 230 230 231 232 233 234 234 235 236 237 238 238 239 239 240 241 242 243 244 246 246 247 248 249 250 253 255
227 228 228 227 227 227 227 227 227 228 230 230 230 231 231 232 232 232 233 234 235 235 236 237 239 239 239 239 240 241 241 242 243 243 245 246 248 249 250 251 253 254
229 229 229 229 229 228 228 227 228 229 230 230 231 232 233 233 233 234 235 236 236 237 237 238 240 241 241 241 242 242 243 243 244 244 245 246 248 249 250 251 252 254
231 230 230 230 230 229 229 228 228 229 230 231 231 233 234 234 235 235 236 237 238 239 239 240 241 242 243 244 244 245 245 246 246 246 247 248 250 251 251 252 253 254
233 232 231 231 231 230 230 230 230 230 230 231 232 233 235 236 236 236 237 239 239 240 241 241 242 243 244 245 246 246 247 248 247 247 249 250 251 252 253 254 255 255
234 233 232 231 231 231 231 231 231 231 232 232 233 234 236 236 236 237 239 240 240 241 242 242 244 245 246 246 247 247 247 248 248 248 250 251 252 253 254 255 256 256
234 233 232 231 231 231 232 232 233 234 234 234 235 235 236 237 238 239 239 240 240 241 243 244 245 246 247 246 246 247 248 249 249 250 251 252 253 254 255 256 257 257
234 233 232 231 231 231 232 233 233 234 235 236 236 237 237 238 239 240 241 241 241 242 244 245 246 247 247 246 247 247 248 250 251 252 252 253 254 254 255 256 257 257
234 234 232 231 231 231 232 232 233 233 234 235 236 237 237 238 239 240 241 242 243 244 245 246 248 248 247 247 248 248 249 250 251 253 254 254 255 256 256 257 258 258
234 234 233 232 231 231 232 232 232 233 234 235 236 236 237 238 239 240 241 242 243 244 246 247 248 249 248 248 249 249 249 251 252 253 254 255 256 256 257 258 259 260
233 234 234 233 232 232 232 232 232 233 234 236 236 236 237 238 240 241 241 242 243 245 246 247 248 249 249 249 250 250 251 252 253 254 255 255 256 256 258 259 259 260
232 233 233 232 231 232 233 233 233 234 235 236 237 237 238 238 239 241 242 242 243 244 245 247 248 248 249 249 250 251 252 253 254 255 255 256 256 256 258 259 259 259
230 231 232 232 232 233 234 234 235 235 235 236 237 237 238 238 238 240 241 241 242 243 245 246 247 248 249 249 250 250 251 253 254 255 256 256 257 257 258 258 259 260
228 229 231 232 233 234 235 235 236 236 235 235 236 237 237 238 237 238 239 240 241 242 244 246 247 248 249 249 250 250 252 253 254 255 255 256 257 258 258 258 259 259
229 230 231 233 233 233 235 236 236 236 236 236 236 237 237 238 238 239 240 241 242 243 245 247 248 249 250 251 252 252 253 254 254 255 256 257 257 258 258 259 259 259
234 234 234 234 233 233 235 237 237 237 237 237 238 238 239 239 240 241 242 243 244 246 248 249 250 251 252 253 253 253 254 255 255 256 257 258 258 259 259 259 259 260
239 239 236 235 235 235 236 238 239 239 239 239 240 241 241 242 242 242 243 245 246 248 249 250 252 253 254 255 254 254 255 256 256 257 257 258 259 259 259 260 259 260